TimeCST,TemperatureF,Dew PointF,Humidity,Sea Level PressureIn,VisibilityMPH,Wind Direction,Wind SpeedMPH,Gust SpeedMPH,PrecipitationIn,Events,Conditions,WindDirDegrees,DateUTC
12:52 AM,9.0,-0.9,64,30.24,10.0,SSE,5.8,-,N/A,,Overcast,150,2014-01-22 06:52:00
1:52 AM,10.0,-0.0,64,30.21,10.0,South,5.8,-,N/A,,Overcast,190,2014-01-22 07:52:00
2:52 AM,10.0,1.0,67,30.17,10.0,South,10.4,-,N/A,,Overcast,170,2014-01-22 08:52:00
3:52 AM,10.9,1.9,67,30.14,10.0,South,8.1,-,N/A,,Overcast,180,2014-01-22 09:52:00
4:52 AM,10.9,3.0,70,30.12,10.0,South,11.5,-,N/A,,Overcast,170,2014-01-22 10:52:00
5:52 AM,12.0,3.9,70,30.11,10.0,South,12.7,-,N/A,,Overcast,180,2014-01-22 11:52:00
6:52 AM,12.9,5.0,71,30.09,10.0,South,10.4,-,N/A,,Overcast,190,2014-01-22 12:52:00
7:52 AM,14.0,6.1,71,30.08,10.0,South,10.4,-,N/A,,Overcast,190,2014-01-22 13:52:00
8:52 AM,16.0,7.0,68,30.08,10.0,SSW,11.5,-,N/A,,Overcast,200,2014-01-22 14:52:00
9:52 AM,17.1,9.0,71,30.09,10.0,SSW,11.5,-,N/A,,Overcast,210,2014-01-22 15:52:00
10:52 AM,19.9,10.0,65,30.07,10.0,WSW,9.2,-,0.00,,Overcast,240,2014-01-22 16:52:00
11:52 AM,21.9,10.0,60,30.06,10.0,WNW,16.1,-,N/A,,Overcast,290,2014-01-22 17:52:00
12:45 PM,24.8,12.2,59,29.99,10.0,West,11.5,-,N/A,,Mostly Cloudy,270,2014-01-22 18:45:00
12:52 PM,24.1,12.9,62,30.02,10.0,West,16.1,20.7,N/A,,Mostly Cloudy,260,2014-01-22 18:52:00
1:52 PM,24.1,12.0,60,30.03,10.0,WNW,15.0,-,N/A,,Overcast,290,2014-01-22 19:52:00
2:09 PM,24.8,12.2,59,30.00,10.0,West,15.0,25.3,N/A,,Overcast,280,2014-01-22 20:09:00
2:52 PM,24.1,12.9,62,30.04,10.0,WNW,13.8,24.2,N/A,,Overcast,290,2014-01-22 20:52:00
3:52 PM,24.1,12.0,60,30.07,10.0,WNW,19.6,27.6,N/A,,Overcast,290,2014-01-22 21:52:00
4:52 PM,21.0,10.9,65,30.11,9.0,NW,18.4,25.3,0.00,,Overcast,310,2014-01-22 22:52:00
5:52 PM,19.9,8.1,60,30.14,10.0,WNW,13.8,25.3,N/A,,Overcast,300,2014-01-22 23:52:00
6:52 PM,19.0,7.0,59,30.15,10.0,NW,17.3,27.6,N/A,,Clear,310,2014-01-23 00:52:00
7:14 PM,17.6,8.6,68,30.14,10.0,NNW,11.5,25.3,N/A,,Mostly Cloudy,330,2014-01-23 01:14:00
7:52 PM,17.1,6.1,62,30.19,10.0,NW,20.7,31.1,0.00,,Overcast,320,2014-01-23 01:52:00
8:52 PM,12.9,1.0,59,30.24,10.0,NW,17.3,25.3,N/A,,Scattered Clouds,310,2014-01-23 02:52:00
9:05 PM,12.2,3.2,67,30.21,5.0,NW,17.3,23.0,0.00,Snow,Light Snow,320,2014-01-23 03:05:00
9:28 PM,10.4,-0.4,62,30.23,10.0,NNW,18.4,27.6,0.00,,Partly Cloudy,330,2014-01-23 03:28:00
9:50 PM,10.4,-0.4,62,30.25,10.0,NNW,19.6,24.2,0.00,,Mostly Cloudy,330,2014-01-23 03:50:00
9:52 PM,10.0,-0.0,64,30.28,9.0,NW,16.1,24.2,0.00,,Mostly Cloudy,320,2014-01-23 03:52:00
10:52 PM,7.0,-0.9,70,30.32,4.0,NW,20.7,29.9,N/A,Snow,Blowing Snow,310,2014-01-23 04:52:00
11:45 PM,5.0,-5.8,61,30.33,8.0,NW,20.7,26.5,0.00,,Scattered Clouds,320,2014-01-23 05:45:00
11:52 PM,3.9,-5.1,66,30.37,8.0,NNW,18.4,26.5,0.00,,Scattered Clouds,330,2014-01-23 05:52:00